[[{"header":{"parameterUnit":"m.s-1","parameterCategory":2,"la1":30.2991,"la2":30.254,"lo1":-89.0895,"lo2":-89.0444,"dy":0.0017,"dx":0.0017,"nx":28,"ny":28,"refTime":"2025-05-30T03:00:00:Z","depth":"0","parameterNumber":2,"parameterNumberName":"U-component_of_CURRENTS"},"data":[0,0,0,0,0,0,0,0,0,0,0,0,0,0,0,0,0,0,0,0,0,0,0,0,0,0,0,0,0,0,0,0,0,0,0,0,0,0,0,0,0,0,0,0,0,0,0,0,0,0,0,0,0,0,0,0,0,0,0.4605,0.4605,0,0.4622,0.4622,0.4622,0.4648,0.4649,0.4649,0.465,0.4609,0.4607,0.4605,0,0,0,0,0,0,0,0,0,0,0,0,0,0.4577,0.4577,0.4605,0.4605,0.4605,0.4622,0.4622,0.4622,0.4648,0.4649,0.4649,0.465,0.4609,0.4607,0.4605,0,0,0,0,0,0,0,0,0,0,0,0,0,0.4589,0.4577,0.4604,0.4622,0.4624,0.4622,0.4622,0.4622,0.4648,0.4649,0.465,0.465,0.461,0.4608,0.4605,0.457,0,0,0.4597,0.4596,0,0,0,0,0,0,0,0,0.4588,0.4589,0.4619,0.4621,0.4623,0.4635,0.4597,0.4602,0.4647,0.4636,0.465,0.4651,0.4613,0.461,0.4609,0.4568,0.4566,0.4597,0.4595,0.4594,0.4594,0,0,0,0,0,0,0,0.4587,0.4589,0.4609,0.4619,0.4622,0.4623,0.4626,0.4598,0.4616,0.4637,0.464,0.4645,0.4613,0.4612,0.4608,0.4565,0.4597,0.4595,0.4593,0.4592,0.4562,0.4563,0,0,0,0,0,0,0.4589,0.4588,0.4609,0.461,0.461,0.4623,0.4626,0.4629,0.4618,0.4618,0.4644,0.4646,0.4615,0.4611,0.4607,0.4597,0.4594,0.4592,0.4591,0.4562,0.4563,0.4563,0,0,0,0,0,0,0.4588,0.4591,0.4608,0.4601,0.4604,0.4623,0.4625,0.4629,0.4636,0.4624,0.4623,0.465,0.4616,0.461,0.4595,0.4594,0.4591,0.4589,0.4561,0.4562,0.4563,0.4555,0,0,0,0,0,0,0.4587,0.459,0.4589,0.4601,0.4604,0.461,0.4625,0.4628,0.4638,0.4641,0.4628,0.4625,0.4616,0.4599,0.4593,0.4591,0.4587,0.456,0.4561,0.4563,0.4555,0.4556,0.4557,0,0,0,0,0,0.4586,0.4589,0.4589,0.4591,0.4603,0.461,0.4612,0.4627,0.4637,0.4637,0.4635,0.4626,0.4605,0.4597,0.459,0.4586,0.4559,0.4561,0.4563,0.4554,0.4556,0.4557,0,0,0,0,0,0,0.4569,0.4592,0.4593,0.4599,0.4603,0.4616,0.4621,0.4627,0.4626,0.4631,0.462,0.4617,0.4611,0.46,0.4593,0.4588,0.4585,0.4586,0.4582,0.4583,0.4584,0.4648,0.4584,0,0,0,0,0,0.4565,0.4581,0.4588,0.4594,0.4596,0.4606,0.461,0.462,0.4623,0.4625,0.4606,0.4603,0.4609,0.4598,0.4594,0.4571,0.4645,0.4572,0.4573,0.4574,0.4624,0.4766,0.4787,0.4569,0.4569,0.4569,0,0,0.4568,0.4576,0.4589,0.4592,0.4599,0.4583,0.4611,0.4622,0.4612,0.4617,0.459,0.4602,0.4608,0.46,0.4595,0.4588,0.4662,0.4577,0.4577,0.4628,0.4771,0.4792,0.4812,0.457,0.457,0.457,0,0,0.4559,0.4579,0.4577,0.4571,0.4576,0.4582,0.4584,0.4584,0.4595,0.4567,0.4593,0.4623,0.4568,0.4612,0.462,0.4629,0.4671,0.4604,0.4648,0.4783,0.4804,0.4823,0.489,0.4915,0.4596,0.4596,0.4596,0,0.455,0.4541,0.4576,0.455,0.4553,0.4576,0.4561,0.4564,0.4555,0.4602,0.4554,0.4617,0.459,0.4677,0.4664,0.4635,0.4702,0.4632,0.4789,0.481,0.483,0.4895,0.4923,0.4595,0.4595,0.4595,0.4595,0,0.4523,0.4508,0.4506,0.4486,0.4499,0.4492,0.4506,0.4528,0.4533,0.4558,0.4636,0.4632,0.4704,0.467,0.4648,0.4781,0.4777,0.4781,0.4789,0.4852,0.4914,0.4944,0.4595,0.4595,0.4595,0.4595,0,0,0.4495,0.4491,0.4479,0.4481,0.4467,0.4489,0.4502,0.4562,0.4647,0.4621,0.4746,0.4725,0.4793,0.4814,0.4823,0.4899,0.5032,0.4885,0.4892,0.496,0.5303,0.5136,0.5152,0.5072,0.5078,0.5083,0.5271,0,0.4447,0.4411,0.4424,0.4407,0.4397,0.4455,0.4493,0.4567,0.4628,0.4746,0.4818,0.4909,0.4827,0.4891,0.496,0.5046,0.512,0.498,0.5229,0.5236,0.5089,0.5185,0.498,0.5118,0.53,0.5305,0.5309,0,0.4377,0.4379,0.4351,0.4423,0.4435,0.4442,0.46,0.4642,0.4825,0.4891,0.5027,0.5096,0.5229,0.5146,0.534,0.5258,0.5289,0.5321,0.533,0.5216,0.5127,0.5097,0.5166,0.5033,0.5355,0.5351,0.5348,0,0.4332,0.4328,0.4325,0.4323,0.4397,0.4456,0.4532,0.4699,0.4808,0.5025,0.5139,0.5311,0.5408,0.5516,0.5533,0.5477,0.5737,0.5677,0.556,0.5546,0.5445,0.5411,0.5432,0.5844,0.5844,0.5843,0.5842,0,0.4251,0.4246,0.4314,0.4302,0.4404,0.4464,0.4621,0.4739,0.4943,0.5096,0.5231,0.5371,0.5509,0.5644,0.5657,0.5694,0.5848,0.5613,0.5613,0.5422,0.5386,0.5323,0.5265,0.585,0.5848,0.5847,0.5846,0,0.4164,0.4182,0.421,0.4312,0.4366,0.445,0.4659,0.4781,0.4966,0.518,0.5257,0.5472,0.5615,0.5718,0.5889,0.5824,0.5736,0.5866,0.5585,0.5546,0.524,0.5188,0.5104,0.4952,0.5785,0.5782,0.578,0,0.41,0.4096,0.4223,0.428,0.4319,0.4463,0.4573,0.4777,0.4898,0.5209,0.5298,0.5514,0.5601,0.5781,0.5756,0.5797,0.5649,0.5603,0.5443,0.523,0.5177,0.4998,0.4864,0.5299,0.5293,0.5288,0.5284,0,0.4022,0.4075,0.4131,0.4246,0.4346,0.4473,0.4628,0.472,0.4954,0.5086,0.5256,0.5361,0.5527,0.5458,0.5503,0.55,0.5328,0.5496,0.5406,0.4912,0.4603,0.4452,0.5126,0.5241,0.5246,0.5249,0.5251,0.5253,0.3995,0.4039,0.4129,0.4227,0.4332,0.4418,0.4441,0.4577,0.4701,0.4796,0.5043,0.5051,0.5174,0.5181,0.5157,0.4987,0.4983,0.4834,0.4826,0.4692,0.4421,0.4943,0.4962,0.4964,0.4967,0.4969,0.497,0,0.3959,0.4021,0.4106,0.4191,0.4202,0.4309,0.4415,0.4359,0.4344,0.4489,0.4544,0.4584,0.455,0.4627,0.4573,0.4381,0.4209,0.4265,0.4019,0.3949,0.4556,0.4406,0.4146,0.4146,0.4146,0.4146,0.4146,0.4146,0.3954,0.4004,0.4039,0.4028,0.4047,0.3976,0.3963,0.3893,0.392,0.3826,0.3787,0.389,0.4169,0.4263,0.4102,0.3999,0.3708,0.3521,0.3528,0.4008,0.4061,0.4112,0.3958,0.3608,0.3607,0.2764,0.2758,0.2753]},{"header":{"parameterUnit":"m.s-1","parameterCategory":2,"la1":30.2991,"la2":30.254,"lo1":-89.0895,"lo2":-89.0444,"dy":0.0017,"dx":0.0017,"nx":28,"ny":28,"refTime":"2025-05-30T03:00:00:Z","depth":"0","parameterNumber":3,"parameterNumberName":"V-component_of_CURRENTS"},"data":[0,0,0,0,0,0,0,0,0,0,0,0,0,0,0,0,0,0,0,0,0,0,0,0,0,0,0,0,0,0,0,0,0,0,0,0,0,0,0,0,0,0,0,0,0,0,0,0,0,0,0,0,0,0,0,0,0,0,0.0116,0.0116,0,0.0056,0.0055,0.0054,0.0001,0.0001,0.0,0.0,-0.0094,-0.0097,-0.0099,0,0,0,0,0,0,0,0,0,0,0,0,0,0.0136,0.0136,0.0116,0.0116,0.0115,0.0056,0.0055,0.0053,0.0001,0.0001,0.0,-0.0,-0.0094,-0.0096,-0.0099,0,0,0,0,0,0,0,0,0,0,0,0,0,0.0104,0.0136,0.0116,0.0084,0.0081,0.0056,0.0055,0.0053,0.0001,0.0001,0.0,-0.0,-0.0093,-0.0096,-0.0099,-0.0111,0,0,-0.011,-0.0111,0,0,0,0,0,0,0,0,0.0106,0.0103,0.0089,0.0086,0.0083,0.0038,0.0027,-0.0002,0.0001,0.0028,0.0,-0.0,-0.0051,-0.0058,-0.0072,-0.0115,-0.0119,-0.011,-0.0112,-0.0113,-0.0114,0,0,0,0,0,0,0,0.0108,0.0105,0.0089,0.0089,0.0085,0.0056,0.0051,0.0021,-0.0011,0.0026,0.0023,0.0021,-0.0053,-0.0069,-0.0075,-0.012,-0.011,-0.0113,-0.0115,-0.0116,-0.0175,-0.0175,0,0,0,0,0,0,0.0125,0.0108,0.0091,0.0087,0.0097,0.0056,0.0051,0.005,-0.001,-0.0019,0.0021,0.0019,-0.0063,-0.0071,-0.0078,-0.007,-0.0113,-0.0116,-0.0118,-0.0176,-0.0175,-0.0175,0,0,0,0,0,0,0.0126,0.0124,0.0093,0.0098,0.0093,0.0057,0.0057,0.0049,0.004,-0.0012,-0.0022,0.0021,-0.0063,-0.0074,-0.0096,-0.0075,-0.0118,-0.0121,-0.0176,-0.0176,-0.0175,-0.007,0,0,0,0,0,0,0.0127,0.0125,0.0127,0.01,0.0093,0.0096,0.0057,0.0049,0.0041,0.0037,-0.0016,-0.0026,-0.0065,-0.009,-0.0099,-0.008,-0.0124,-0.0177,-0.0176,-0.0175,-0.0074,-0.0065,-0.0058,0,0,0,0,0,0.0128,0.0144,0.0128,0.0126,0.0099,0.0098,0.0092,0.0062,0.0042,0.0049,0.0008,-0.0024,-0.0092,-0.0092,-0.0103,-0.0085,-0.0177,-0.0176,-0.0175,-0.0077,-0.0067,-0.0059,0,0,0,0,0,0,0.0152,0.0139,0.0121,0.013,0.0121,0.0091,0.0092,0.0072,0.0044,0.0036,-0.0017,-0.0029,-0.0044,-0.008,-0.0079,-0.0102,-0.014,-0.0141,-0.0062,-0.0053,-0.0046,-0.0015,-0.0126,0,0,0,0,0,0.016,0.0167,0.0149,0.0156,0.0154,0.0123,0.0117,0.01,0.0074,0.0061,0.0026,-0.0017,-0.0049,-0.0062,-0.0099,-0.0105,-0.012,-0.0103,-0.0095,-0.0088,-0.0071,-0.0057,-0.0046,-0.0172,-0.0172,-0.0172,0,0,0.017,0.0165,0.0166,0.0162,0.0147,0.0163,0.0118,0.0119,0.0129,0.0055,0.0055,0.0008,-0.0047,-0.0057,-0.0067,-0.0082,-0.0065,-0.0087,-0.008,-0.0067,-0.0055,-0.0042,-0.0031,-0.0171,-0.0171,-0.0171,0,0,0.0211,0.0191,0.0217,0.0216,0.0209,0.0192,0.02,0.0178,0.0164,0.0156,0.0103,0.0077,0.0028,0.0001,-0.0022,0.0007,-0.0028,-0.0013,0.0058,0.0072,0.0083,0.0093,0.0078,0.0086,-0.0003,-0.0003,-0.0003,0,0.0224,0.0252,0.0225,0.0253,0.0258,0.0215,0.0247,0.0232,0.0205,0.0209,0.017,0.0118,0.006,0.0065,0.006,0.0027,0.002,0.0032,0.0085,0.0095,0.0103,0.0085,0.0093,0.0002,0.0001,0.0001,0.0,0,0.029,0.0308,0.0325,0.0345,0.0346,0.0366,0.0346,0.0346,0.0318,0.0306,0.0301,0.0229,0.0203,0.0174,0.0117,0.0148,0.0117,0.0093,0.0072,0.0123,0.01,0.0105,0.0009,0.0008,0.0006,0.0005,0,0,0.0333,0.0367,0.0372,0.0399,0.0396,0.0411,0.0427,0.0442,0.048,0.0432,0.0483,0.0392,0.0358,0.0328,0.0264,0.0262,0.0286,0.0205,0.0203,0.0207,0.0305,0.0241,0.024,0.0281,0.0283,0.0284,0.0262,0,0.0394,0.0471,0.0463,0.0527,0.0564,0.0532,0.0565,0.0568,0.0559,0.0599,0.0533,0.055,0.0417,0.042,0.0389,0.0328,0.0308,0.0293,0.024,0.0238,0.019,0.0247,0.0248,0.0225,0.0267,0.0268,0.0268,0,0.0464,0.0508,0.0583,0.0636,0.0649,0.0678,0.0724,0.0754,0.0783,0.0782,0.0773,0.0732,0.0706,0.0601,0.0511,0.0512,0.0408,0.0348,0.0346,0.0258,0.0186,0.0181,0.0233,0.0029,0.0277,0.0276,0.0275,0,0.0522,0.059,0.0654,0.067,0.0722,0.0749,0.0781,0.0814,0.0881,0.0922,0.0988,0.092,0.0934,0.0805,0.0627,0.0587,0.0545,0.0477,0.0317,0.031,0.0285,0.0273,0.0151,0.042,0.042,0.042,0.042,0,0.0593,0.0645,0.069,0.0728,0.0829,0.083,0.0946,0.0966,0.1053,0.1186,0.1098,0.1188,0.0992,0.0929,0.0725,0.0545,0.0611,0.0346,0.0314,0.0316,0.0308,0.0105,-0.0028,0.0419,0.0419,0.0419,0.042,0,0.0649,0.0675,0.0761,0.0828,0.0861,0.0936,0.1069,0.117,0.1225,0.1403,0.1437,0.1423,0.1338,0.1112,0.093,0.0699,0.0392,0.0429,0.0425,0.0391,0.0021,-0.0106,-0.0284,-0.0365,0.0257,0.0255,0.0254,0,0.0685,0.0735,0.0839,0.0916,0.0951,0.1069,0.1175,0.1254,0.1384,0.156,0.1672,0.1645,0.165,0.1331,0.094,0.059,0.0372,0.034,0.0245,0.0017,-0.0148,-0.0246,-0.0307,0.0247,0.0246,0.0245,0.0244,0,0.0762,0.0793,0.0869,0.1027,0.1141,0.1294,0.1449,0.1577,0.1719,0.1868,0.205,0.2071,0.1764,0.1418,0.0913,0.0654,0.0183,0.0305,0.0097,-0.0142,-0.028,-0.0376,0.0218,0.0235,0.0236,0.0236,0.0237,0.0237,0.082,0.0895,0.1004,0.1155,0.1306,0.1511,0.1654,0.1836,0.2064,0.2297,0.2307,0.2369,0.1854,0.1167,0.0791,0.0103,0.0089,-0.0121,-0.0248,-0.0321,-0.0425,0.0125,0.0083,0.0084,0.0084,0.0084,0.0084,0,0.0904,0.0994,0.1137,0.1329,0.1515,0.1574,0.1841,0.1997,0.2268,0.2456,0.2587,0.2367,0.1725,0.1077,0.0141,-0.035,-0.051,-0.0612,-0.0738,-0.0766,-0.024,-0.0267,-0.0417,-0.0417,-0.0417,-0.0417,-0.0417,-0.0416,0.0956,0.1098,0.1173,0.1476,0.1622,0.1873,0.2028,0.2249,0.2423,0.2633,0.2663,0.2646,0.2132,0.0489,-0.0586,-0.0821,-0.114,-0.1257,-0.1394,-0.1042,-0.1005,-0.0969,-0.1024,-0.1331,-0.1333,-0.1837,-0.1843,-0.1847]}],[{"header":{"parameterUnit":"m.s-1","parameterCategory":2,"la1":30.2991,"la2":30.254,"lo1":-89.0895,"lo2":-89.0444,"dy":0.0017,"dx":0.0017,"nx":28,"ny":28,"refTime":"2025-05-30T03:00:00:Z","depth":"2","parameterNumber":2,"parameterNumberName":"U-component_of_CURRENTS"},"data":[0,0,0,0,0,0,0,0,0,0,0,0,0,0,0,0,0,0,0,0,0,0,0,0,0,0,0,0,0,0,0,0,0,0,0,0,0,0,0,0,0,0,0,0,0,0,0,0,0,0,0,0,0,0,0,0,0,0,0.3433,0.3435,0,0.3517,0.3517,0.3518,0.356,0.3561,0.3561,0.3562,0.3592,0.3593,0.3593,0,0,0,0,0,0,0,0,0,0,0,0,0,0.3342,0.3343,0.3433,0.3435,0.3436,0.3516,0.3517,0.3518,0.356,0.3561,0.3562,0.3562,0.3592,0.3592,0.3593,0,0,0,0,0,0,0,0,0,0,0,0,0,0.3394,0.3343,0.3433,0.3471,0.3476,0.3516,0.3517,0.3518,0.356,0.3561,0.3562,0.3562,0.3592,0.3592,0.3593,0.358,0,0,0.3594,0.3595,0,0,0,0,0,0,0,0,0.3391,0.3397,0.3464,0.3469,0.3474,0.3533,0.3497,0.3538,0.356,0.3523,0.3562,0.3563,0.357,0.3573,0.358,0.3582,0.3583,0.3594,0.3595,0.3595,0.3595,0,0,0,0,0,0,0,0.3387,0.3394,0.3461,0.3466,0.3472,0.3495,0.3502,0.3505,0.3536,0.3526,0.353,0.3548,0.3572,0.3579,0.3581,0.3584,0.3594,0.3595,0.3595,0.3595,0.3666,0.3668,0,0,0,0,0,0,0.3385,0.339,0.3459,0.3464,0.3439,0.3496,0.3504,0.3509,0.3537,0.3544,0.3547,0.355,0.3578,0.358,0.3582,0.3633,0.3595,0.3595,0.3596,0.3665,0.3667,0.3668,0,0,0,0,0,0,0.3383,0.339,0.3455,0.3434,0.3445,0.3497,0.3502,0.3511,0.3539,0.3555,0.356,0.357,0.3579,0.3582,0.3599,0.3632,0.3596,0.3596,0.3663,0.3665,0.3667,0.3694,0,0,0,0,0,0,0.3379,0.3388,0.34,0.3433,0.3446,0.3493,0.3503,0.3512,0.355,0.3554,0.3576,0.3578,0.358,0.3599,0.36,0.3632,0.3596,0.3661,0.3664,0.3667,0.3691,0.3697,0.3702,0,0,0,0,0,0.3375,0.3392,0.3399,0.3409,0.3456,0.3494,0.3502,0.3539,0.355,0.3565,0.3578,0.3579,0.362,0.3599,0.3601,0.3634,0.3659,0.3663,0.3666,0.3688,0.3695,0.3702,0,0,0,0,0,0,0.3357,0.3399,0.3408,0.3435,0.3467,0.3504,0.3531,0.3547,0.357,0.358,0.3583,0.3587,0.3622,0.3622,0.36,0.3667,0.3646,0.365,0.3662,0.3669,0.3674,0.3683,0.3597,0,0,0,0,0,0.3357,0.3381,0.3418,0.3441,0.3459,0.3494,0.3518,0.3542,0.3566,0.3579,0.3592,0.3612,0.3635,0.3646,0.3663,0.3684,0.372,0.3713,0.3719,0.3723,0.3734,0.3851,0.3868,0.368,0.368,0.368,0,0,0.3356,0.3385,0.3397,0.3439,0.3468,0.3496,0.351,0.3555,0.3577,0.3576,0.3609,0.3629,0.3645,0.3679,0.3696,0.3683,0.3788,0.3728,0.3731,0.374,0.3857,0.3875,0.3892,0.3682,0.3682,0.3682,0,0,0.3361,0.3391,0.3409,0.3441,0.3494,0.3516,0.353,0.3573,0.3595,0.3622,0.3639,0.368,0.3696,0.3728,0.3741,0.3787,0.3815,0.3796,0.3827,0.394,0.3957,0.3973,0.4004,0.4022,0.3797,0.3797,0.3797,0,0.3364,0.3383,0.3421,0.3451,0.3482,0.3523,0.3548,0.3576,0.3618,0.3648,0.3639,0.3723,0.3725,0.3794,0.3802,0.3801,0.3846,0.3795,0.3949,0.3965,0.398,0.4009,0.4029,0.3799,0.3798,0.3798,0.3798,0,0.3368,0.3401,0.3421,0.3465,0.3502,0.3537,0.3581,0.3619,0.3647,0.3682,0.3759,0.3778,0.3841,0.3844,0.3824,0.3937,0.3924,0.3944,0.3931,0.4001,0.4026,0.4046,0.3801,0.38,0.38,0.3799,0,0,0.3334,0.3408,0.3417,0.3446,0.3517,0.3546,0.3598,0.366,0.3726,0.3761,0.3851,0.3873,0.3919,0.3938,0.395,0.4019,0.4132,0.402,0.4025,0.4047,0.434,0.4229,0.4239,0.4194,0.4199,0.4202,0.4299,0,0.3328,0.3374,0.3416,0.347,0.35,0.3568,0.3622,0.3693,0.376,0.3859,0.391,0.3999,0.3947,0.4004,0.4066,0.4138,0.4193,0.41,0.4272,0.4276,0.4168,0.4263,0.3925,0.3977,0.4319,0.4322,0.4325,0,0.3311,0.335,0.3394,0.349,0.3513,0.3554,0.3676,0.3748,0.3892,0.3952,0.4057,0.4114,0.4216,0.4179,0.4325,0.4275,0.4305,0.4337,0.4343,0.4249,0.4204,0.3972,0.4001,0.4358,0.4356,0.4353,0.4351,0,0.3255,0.3337,0.3371,0.3402,0.3512,0.3557,0.3638,0.3779,0.3864,0.4053,0.4143,0.4265,0.4354,0.4439,0.4468,0.4433,0.4624,0.4596,0.451,0.45,0.4249,0.421,0.4712,0.4712,0.4711,0.4711,0.4711,0,0.3228,0.3258,0.3353,0.3374,0.3457,0.3553,0.3676,0.3783,0.3953,0.4076,0.4212,0.4315,0.4433,0.4534,0.4548,0.4586,0.47,0.4534,0.4544,0.4241,0.4202,0.4567,0.4548,0.4715,0.4714,0.4713,0.4713,0,0.3164,0.322,0.3278,0.3389,0.3434,0.3512,0.3685,0.3771,0.3959,0.4135,0.4203,0.4387,0.4518,0.4592,0.4728,0.4678,0.4737,0.4713,0.4303,0.4263,0.4504,0.4486,0.4643,0.464,0.4638,0.4636,0.4635,0,0.3126,0.3149,0.3278,0.3316,0.3367,0.3492,0.357,0.376,0.3864,0.4154,0.4226,0.4412,0.4488,0.4633,0.4607,0.4628,0.4706,0.4312,0.4184,0.4516,0.4511,0.4496,0.4481,0.384,0.3832,0.3826,0.3821,0,0.3069,0.3126,0.3179,0.3267,0.3342,0.3428,0.3563,0.3621,0.3861,0.3978,0.4131,0.4222,0.4385,0.425,0.4302,0.4268,0.4284,0.418,0.47,0.3909,0.3768,0.3759,0.377,0.3763,0.3769,0.3773,0.3776,0.3778,0.3031,0.306,0.3139,0.3212,0.3293,0.3334,0.3327,0.3455,0.3556,0.3686,0.3892,0.3915,0.3995,0.3883,0.3786,0.3713,0.3996,0.3816,0.3833,0.3857,0.3747,0.3611,0.355,0.3554,0.3558,0.3562,0.3564,0,0.297,0.3013,0.3067,0.3115,0.3111,0.322,0.3284,0.3224,0.3227,0.3407,0.348,0.3249,0.3202,0.3276,0.3082,0.3099,0.304,0.297,0.2857,0.292,0.2974,0.2813,0.2372,0.2367,0.2363,0.236,0,0,0.2938,0.2949,0.297,0.2929,0.2945,0.2879,0.2863,0.2801,0.2857,0.2812,0.2807,0.3075,0.3203,0.274,0.27,0.2494,0.2677,0.2401,0.3371,0.3304,0.3352,0.3492,0.3321,0,0,0,0,0]},{"header":{"parameterUnit":"m.s-1","parameterCategory":2,"la1":30.2991,"la2":30.254,"lo1":-89.0895,"lo2":-89.0444,"dy":0.0017,"dx":0.0017,"nx":28,"ny":28,"refTime":"2025-05-30T03:00:00:Z","depth":"2","parameterNumber":3,"parameterNumberName":"V-component_of_CURRENTS"},"data":[0,0,0,0,0,0,0,0,0,0,0,0,0,0,0,0,0,0,0,0,0,0,0,0,0,0,0,0,0,0,0,0,0,0,0,0,0,0,0,0,0,0,0,0,0,0,0,0,0,0,0,0,0,0,0,0,0,0,0.0184,0.0183,0,0.0124,0.0123,0.0122,0.0074,0.0074,0.0073,0.0073,-0.0015,-0.0017,-0.0019,0,0,0,0,0,0,0,0,0,0,0,0,0,0.0194,0.0195,0.0184,0.0183,0.0183,0.0124,0.0123,0.0122,0.0074,0.0074,0.0073,0.0073,-0.0014,-0.0017,-0.0019,0,0,0,0,0,0,0,0,0,0,0,0,0,0.0166,0.0195,0.0184,0.0154,0.015,0.0124,0.0123,0.0121,0.0074,0.0074,0.0073,0.0073,-0.0013,-0.0017,-0.002,-0.0031,0,0,-0.0029,-0.0031,0,0,0,0,0,0,0,0,0.0167,0.0165,0.0159,0.0156,0.0152,0.0108,0.0094,0.007,0.0074,0.0101,0.0073,0.0073,0.0025,0.0019,0.0006,-0.0035,-0.0039,-0.0029,-0.0031,-0.0033,-0.0034,0,0,0,0,0,0,0,0.017,0.0167,0.0158,0.0158,0.0154,0.0121,0.0117,0.0089,0.0064,0.0098,0.0095,0.0092,0.0023,0.0009,0.0003,-0.004,-0.0029,-0.0032,-0.0034,-0.0035,-0.0098,-0.0097,0,0,0,0,0,0,0.0185,0.0169,0.016,0.0156,0.0161,0.0122,0.0117,0.0121,0.0065,0.0056,0.0093,0.009,0.0014,0.0007,-0.0,-0.0002,-0.0033,-0.0036,-0.0037,-0.0098,-0.0098,-0.0097,0,0,0,0,0,0,0.0186,0.0185,0.0162,0.0163,0.0158,0.0123,0.0127,0.012,0.0109,0.0061,0.0052,0.009,0.0014,0.0004,-0.0018,-0.0007,-0.0037,-0.004,-0.0098,-0.0098,-0.0097,-0.0016,0,0,0,0,0,0,0.0187,0.0186,0.019,0.0164,0.0158,0.0158,0.0127,0.0119,0.0108,0.0105,0.0056,0.0047,0.0013,-0.0013,-0.0021,-0.0011,-0.0042,-0.0098,-0.0098,-0.0098,-0.0019,-0.0013,-0.0007,0,0,0,0,0,0.0187,0.0205,0.0191,0.0189,0.0167,0.0159,0.0153,0.0125,0.0109,0.0112,0.0077,0.0048,-0.0016,-0.0015,-0.0025,-0.0016,-0.0099,-0.0098,-0.0098,-0.0021,-0.0014,-0.0008,0,0,0,0,0,0,0.021,0.0201,0.0185,0.0197,0.0183,0.0152,0.0152,0.0132,0.0106,0.0101,0.0053,0.0042,0.0025,-0.0007,-0.0004,-0.0034,-0.0063,-0.0064,-0.0002,0.0005,0.001,0.0037,-0.0045,0,0,0,0,0,0.0218,0.0228,0.0209,0.0217,0.0214,0.0182,0.0174,0.0157,0.0133,0.0121,0.0087,0.0049,0.0019,0.0004,-0.0029,-0.0041,-0.0068,-0.0043,-0.0038,-0.0032,-0.0018,-0.0036,-0.003,-0.0096,-0.0096,-0.0096,0,0,0.0229,0.0224,0.0228,0.0222,0.0206,0.0213,0.0176,0.0173,0.0176,0.0115,0.0108,0.0068,0.0019,0.0004,-0.0007,-0.002,-0.0033,-0.0032,-0.0027,-0.0015,-0.0035,-0.0029,-0.0023,-0.0095,-0.0095,-0.0095,0,0,0.0261,0.0252,0.0271,0.0266,0.0253,0.0237,0.0242,0.0218,0.0204,0.019,0.0147,0.0121,0.0072,0.0046,0.0024,0.0042,-0.0003,0.0024,0.0078,0.006,0.0066,0.0071,0.0029,0.003,0.0029,0.0029,0.003,0,0.0272,0.0295,0.0274,0.0291,0.0293,0.0255,0.0277,0.0259,0.023,0.0231,0.0199,0.0142,0.0095,0.0086,0.0085,0.0057,0.0031,0.0059,0.007,0.0074,0.0078,0.0034,0.0034,0.0033,0.0033,0.0033,0.0032,0,0.0319,0.0334,0.0347,0.0356,0.0354,0.0368,0.0347,0.0344,0.0319,0.0304,0.0288,0.0224,0.0195,0.0169,0.0128,0.0132,0.0099,0.008,0.0059,0.009,0.0041,0.0039,0.0039,0.0038,0.0037,0.0036,0,0,0.0354,0.0378,0.0381,0.0403,0.0393,0.0405,0.041,0.0416,0.0446,0.0391,0.0419,0.0342,0.0312,0.0285,0.0231,0.0208,0.0192,0.0159,0.0156,0.0129,0.0138,0.0098,0.0091,0.0179,0.018,0.018,0.0089,0,0.0396,0.0451,0.0444,0.0493,0.0522,0.0496,0.0517,0.0515,0.0504,0.0522,0.0452,0.0451,0.0356,0.035,0.0308,0.0234,0.0194,0.0218,0.0103,0.0099,0.007,0.009,0.0118,0.0039,0.0087,0.0086,0.0086,0,0.0444,0.0479,0.0537,0.0585,0.0596,0.0618,0.0658,0.0678,0.0683,0.0676,0.0649,0.0595,0.0544,0.0465,0.0339,0.036,0.0254,0.0183,0.0177,0.0115,0.0057,0.0017,0.0033,0.0082,0.0083,0.0083,0.0083,0,0.0492,0.0545,0.0598,0.0611,0.0654,0.068,0.071,0.0731,0.0784,0.0786,0.0823,0.073,0.0709,0.0572,0.0389,0.0373,0.0253,0.0212,0.0068,0.0062,0.0051,0.0045,0.0123,0.0123,0.0123,0.0123,0.0124,0,0.0546,0.059,0.0632,0.0665,0.0758,0.0757,0.0861,0.0875,0.0929,0.1026,0.0918,0.0955,0.0738,0.0632,0.0447,0.0253,0.0288,0.0084,0.0046,0.0076,0.0073,0.0087,0.0084,0.012,0.0121,0.0121,0.0122,0,0.0591,0.0611,0.069,0.0753,0.0785,0.0858,0.0977,0.1064,0.109,0.1211,0.1219,0.1134,0.0989,0.0752,0.0529,0.0344,0.0154,0.0068,0.0103,0.007,-0.0046,-0.0044,-0.0092,-0.0094,-0.0096,-0.0097,-0.0098,0,0.0619,0.0662,0.0765,0.0839,0.0876,0.0988,0.1085,0.1145,0.1253,0.1331,0.1406,0.1286,0.1223,0.0858,0.0513,0.0179,0.0136,-0.002,-0.0051,-0.0031,-0.0064,-0.0059,-0.0055,-0.0047,-0.0047,-0.0048,-0.0048,0,0.0685,0.0717,0.0791,0.0947,0.1058,0.1196,0.1336,0.1437,0.1531,0.1604,0.167,0.1616,0.1275,0.0926,0.046,0.0241,0.0034,-0.0043,-0.0008,0.0005,0.0005,-0.0025,-0.0021,-0.0053,-0.0053,-0.0052,-0.0052,-0.0052,0.074,0.0813,0.0922,0.1072,0.1212,0.1388,0.1503,0.1646,0.1794,0.191,0.1858,0.1781,0.1397,0.0793,0.0395,-0.0018,0.0005,-0.0143,-0.0138,-0.0134,-0.011,-0.0112,-0.019,-0.019,-0.0191,-0.0191,-0.0191,0,0.0819,0.0909,0.1049,0.1226,0.1387,0.1449,0.1666,0.1766,0.1925,0.2018,0.2038,0.1671,0.1282,0.0846,0.0227,-0.014,-0.0154,-0.0252,-0.0193,-0.0185,-0.0179,-0.0156,-0.025,-0.0251,-0.0252,-0.0253,0,0,0.0869,0.101,0.1084,0.1346,0.1473,0.1675,0.1794,0.192,0.2016,0.207,0.2029,0.1946,0.1412,0.0954,0.0452,0.0094,0.0044,0.0031,0.0119,0.0257,0.0267,-0.0075,-0.0026,0,0,0,0,0]}],[{"header":{"parameterUnit":"m.s-1","parameterCategory":2,"la1":30.2991,"la2":30.254,"lo1":-89.0895,"lo2":-89.0444,"dy":0.0017,"dx":0.0017,"nx":28,"ny":28,"refTime":"2025-05-30T03:00:00:Z","depth":"4","parameterNumber":2,"parameterNumberName":"U-component_of_CURRENTS"},"data":[0,0,0,0,0,0,0,0,0,0,0,0,0,0,0,0,0,0,0,0,0,0,0,0,0,0,0,0,0,0,0,0,0,0,0,0,0,0,0,0,0,0,0,0,0,0,0,0,0,0,0,0,0,0,0,0,0,0,0.2059,0.206,0,0.2155,0.2156,0.2157,0.2231,0.2231,0.2232,0.2233,0.2329,0.2331,0.2332,0,0,0,0,0,0,0,0,0,0,0,0,0,0.1945,0.1947,0.2059,0.206,0.2061,0.2155,0.2156,0.2157,0.223,0.2231,0.2232,0.2233,0.2328,0.233,0.2332,0,0,0,0,0,0,0,0,0,0,0,0,0,0.2012,0.1947,0.2058,0.2111,0.2116,0.2155,0.2156,0.2158,0.223,0.2231,0.2233,0.2234,0.2328,0.233,0.2333,0.2323,0,0,0.2341,0.2342,0,0,0,0,0,0,0,0,0.2008,0.2015,0.2102,0.2107,0.2114,0.2184,0.2152,0.2214,0.223,0.2185,0.2233,0.2235,0.2281,0.2287,0.23,0.2328,0.2332,0.2341,0.2343,0.2344,0.2344,0,0,0,0,0,0,0,0.2003,0.2012,0.2095,0.2103,0.211,0.2132,0.2142,0.2164,0.2223,0.2189,0.2195,0.2208,0.2284,0.2297,0.2303,0.2333,0.2341,0.2343,0.2345,0.2346,0.2488,0.249,0,0,0,0,0,0,0.1993,0.2007,0.2092,0.2098,0.2065,0.2133,0.2145,0.2158,0.2223,0.2234,0.2207,0.2211,0.2292,0.2299,0.2306,0.2414,0.2344,0.2346,0.2348,0.2486,0.2488,0.2491,0,0,0,0,0,0,0.199,0.2,0.2088,0.2056,0.2069,0.2134,0.2148,0.216,0.2224,0.2237,0.2249,0.2266,0.2293,0.2302,0.2373,0.2414,0.2347,0.235,0.2483,0.2486,0.249,0.2555,0,0,0,0,0,0,0.1987,0.1998,0.2028,0.2056,0.2071,0.2145,0.2148,0.2161,0.2228,0.2236,0.229,0.2298,0.2295,0.237,0.2376,0.2416,0.2352,0.248,0.2485,0.2488,0.255,0.256,0.2569,0,0,0,0,0,0.1982,0.2007,0.2028,0.204,0.2102,0.2147,0.2158,0.2205,0.223,0.2267,0.2308,0.2299,0.24,0.2374,0.2381,0.2422,0.2478,0.2483,0.2488,0.2546,0.2558,0.2569,0,0,0,0,0,0,0.1973,0.2017,0.2042,0.208,0.2129,0.2161,0.2202,0.2234,0.2295,0.2317,0.2328,0.2339,0.2417,0.2413,0.2384,0.2477,0.2437,0.2444,0.2479,0.249,0.25,0.2495,0.2354,0,0,0,0,0,0.1983,0.2018,0.2062,0.2099,0.2126,0.2175,0.2209,0.2245,0.229,0.2322,0.2363,0.2402,0.2433,0.2459,0.249,0.2539,0.2548,0.2571,0.258,0.2588,0.2591,0.2654,0.2669,0.2507,0.2507,0.2507,0,0,0.1987,0.2021,0.204,0.2102,0.2142,0.2191,0.22,0.2267,0.2316,0.232,0.2417,0.2445,0.2457,0.2516,0.2549,0.2524,0.264,0.2594,0.2601,0.2599,0.2661,0.2677,0.2691,0.251,0.251,0.2509,0,0,0.2003,0.2048,0.2083,0.2131,0.2207,0.2235,0.2267,0.2336,0.238,0.2464,0.2476,0.2532,0.2597,0.2604,0.2611,0.269,0.2693,0.2711,0.275,0.2812,0.2826,0.2838,0.287,0.2884,0.2709,0.2709,0.2709,0,0.2013,0.2063,0.2103,0.2157,0.2198,0.2261,0.231,0.2361,0.2451,0.2485,0.2512,0.2615,0.263,0.2673,0.2703,0.271,0.2744,0.2702,0.2824,0.2836,0.2847,0.2877,0.2892,0.2713,0.2713,0.2712,0.2712,0,0.2048,0.211,0.2139,0.2222,0.2269,0.2329,0.2392,0.2463,0.2529,0.2574,0.2669,0.2702,0.2757,0.2772,0.2763,0.2844,0.2842,0.2833,0.2791,0.2867,0.2894,0.2908,0.2719,0.2717,0.2716,0.2715,0,0,0.2011,0.2137,0.2156,0.2197,0.2313,0.234,0.2434,0.2511,0.2571,0.2672,0.2744,0.2804,0.2841,0.2852,0.2858,0.2906,0.301,0.2913,0.2914,0.2937,0.3149,0.2959,0.2956,0.304,0.3043,0.3045,0.3135,0,0.2034,0.2124,0.2188,0.2275,0.2319,0.2404,0.2472,0.2554,0.2641,0.2734,0.2784,0.2867,0.2864,0.2907,0.2959,0.3008,0.3053,0.2986,0.3078,0.308,0.2896,0.2968,0.3054,0.3146,0.3149,0.3151,0.3153,0,0.2046,0.2104,0.2187,0.2285,0.2312,0.238,0.2486,0.2564,0.2696,0.2771,0.2871,0.2926,0.3017,0.3007,0.3132,0.3103,0.3134,0.316,0.3164,0.297,0.2916,0.3056,0.3179,0.3177,0.3175,0.3173,0.3172,0,0.197,0.2097,0.2154,0.2196,0.2321,0.2375,0.2452,0.2581,0.2654,0.2816,0.2903,0.3008,0.31,0.3163,0.3233,0.3207,0.3364,0.3325,0.3173,0.316,0.3274,0.326,0.3405,0.3405,0.3405,0.3404,0.3404,0,0.1948,0.2001,0.2131,0.2164,0.223,0.2335,0.2432,0.2534,0.2689,0.2784,0.2926,0.3014,0.3158,0.3257,0.3279,0.3277,0.3409,0.3187,0.3175,0.3299,0.3288,0.3284,0.3269,0.3408,0.3407,0.3406,0.3406,0,0.186,0.1958,0.202,0.2153,0.2202,0.2249,0.2422,0.2483,0.2668,0.2807,0.287,0.3071,0.3202,0.33,0.3418,0.3328,0.334,0.3302,0.3438,0.3432,0.3076,0.3064,0.3119,0.3113,0.3108,0.3104,0.3101,0,0.1823,0.1849,0.1986,0.2023,0.2097,0.2199,0.2266,0.2455,0.2539,0.2812,0.2861,0.3063,0.3172,0.3187,0.33,0.332,0.3282,0.3252,0.3137,0.3066,0.305,0.3046,0.304,0.3093,0.3091,0.309,0.3089,0,0.1731,0.1793,0.184,0.1923,0.2,0.2074,0.2205,0.2249,0.2475,0.2663,0.2788,0.2857,0.3001,0.3073,0.3126,0.3129,0.3246,0.3199,0.3207,0.3099,0.3035,0.3023,0.3023,0.3071,0.3074,0.3076,0.3077,0,0.1657,0.1658,0.1733,0.1788,0.1886,0.1934,0.2012,0.212,0.2229,0.2533,0.2569,0.2789,0.2981,0.2977,0.3022,0.3018,0.2953,0.2829,0.2855,0.2875,0.2752,0.2631,0.254,0,0,0,0,0,0.1566,0.1554,0.1594,0.165,0.1746,0.1814,0.1962,0.2051,0.2274,0.2297,0.243,0.2547,0.2635,0.2743,0.2687,0.2897,0.2954,0.2815,0.2821,0.2976,0.2996,0.2871,0,0,0,0,0,0,0.1503,0.1529,0.1539,0.1536,0.156,0.1653,0.1744,0.1887,0.1915,0.2151,0.2215,0.2389,0.2512,0.2653,0.2643,0.2671,0.2618,0.2948,0.2941,0.2965,0.2983,0.2999,0.2877,0,0,0,0,0]},{"header":{"parameterUnit":"m.s-1","parameterCategory":2,"la1":30.2991,"la2":30.254,"lo1":-89.0895,"lo2":-89.0444,"dy":0.0017,"dx":0.0017,"nx":28,"ny":28,"refTime":"2025-05-30T03:00:00:Z","depth":"4","parameterNumber":3,"parameterNumberName":"V-component_of_CURRENTS"},"data":[0,0,0,0,0,0,0,0,0,0,0,0,0,0,0,0,0,0,0,0,0,0,0,0,0,0,0,0,0,0,0,0,0,0,0,0,0,0,0,0,0,0,0,0,0,0,0,0,0,0,0,0,0,0,0,0,0,0,0.0181,0.018,0,0.0143,0.0142,0.0142,0.0116,0.0116,0.0116,0.0116,0.0059,0.0058,0.0056,0,0,0,0,0,0,0,0,0,0,0,0,0,0.018,0.018,0.0181,0.018,0.018,0.0143,0.0142,0.0142,0.0116,0.0116,0.0116,0.0116,0.0059,0.0058,0.0056,0,0,0,0,0,0,0,0,0,0,0,0,0,0.0164,0.018,0.0181,0.0164,0.0162,0.0143,0.0142,0.0142,0.0116,0.0116,0.0116,0.0116,0.006,0.0058,0.0056,0.0045,0,0,0.0049,0.0048,0,0,0,0,0,0,0,0,0.0165,0.0164,0.0167,0.0165,0.0163,0.0135,0.0121,0.0109,0.0116,0.0132,0.0116,0.0116,0.0084,0.0079,0.0071,0.0042,0.0039,0.0049,0.0048,0.0047,0.0046,0,0,0,0,0,0,0,0.0166,0.0165,0.0165,0.0166,0.0164,0.0141,0.0139,0.0118,0.0108,0.0131,0.0129,0.0127,0.0082,0.0073,0.007,0.0039,0.0049,0.0047,0.0046,0.0045,0.0,0.0001,0,0,0,0,0,0,0.0176,0.0167,0.0166,0.0164,0.0165,0.0141,0.0139,0.0143,0.0108,0.0103,0.0127,0.0126,0.0077,0.0072,0.0067,0.0067,0.0047,0.0045,0.0043,0.0,0.0,0.0001,0,0,0,0,0,0,0.0176,0.0177,0.0167,0.0164,0.0162,0.0142,0.0147,0.0143,0.0138,0.0106,0.01,0.0128,0.0077,0.0071,0.0055,0.0064,0.0044,0.0042,0.0,0.0,0.0,0.0056,0,0,0,0,0,0,0.0177,0.0177,0.0183,0.0166,0.0162,0.0165,0.0147,0.0142,0.0137,0.0135,0.0104,0.0099,0.0076,0.0059,0.0053,0.006,0.004,-0.0,0.0,0.0,0.0054,0.0058,0.0061,0,0,0,0,0,0.0177,0.0191,0.0183,0.0183,0.0172,0.0166,0.0162,0.0145,0.0137,0.014,0.0118,0.01,0.0056,0.0057,0.0051,0.0057,-0.0,0.0,0.0,0.0052,0.0057,0.0061,0,0,0,0,0,0,0.0194,0.019,0.0181,0.0193,0.0182,0.0162,0.0164,0.0151,0.0135,0.0134,0.0102,0.0095,0.0083,0.0062,0.0064,0.0044,0.0025,0.0024,0.0066,0.007,0.0074,0.0091,0.0038,0,0,0,0,0,0.02,0.021,0.0197,0.0206,0.0204,0.0184,0.0179,0.0169,0.0153,0.0146,0.0124,0.0099,0.0078,0.0069,0.0046,0.0038,0.0006,0.0036,0.004,0.0044,0.0052,0.0014,0.0015,0.0001,0.0001,0.0001,0,0,0.0209,0.0207,0.0213,0.021,0.02,0.0204,0.0181,0.0181,0.0183,0.0143,0.0139,0.0111,0.0078,0.0068,0.0061,0.0052,0.0028,0.0044,0.0047,0.0054,0.0014,0.0015,0.0016,0.0002,0.0002,0.0002,0,0,0.0231,0.0231,0.0245,0.0242,0.0234,0.0224,0.0227,0.0211,0.0204,0.0194,0.0166,0.0147,0.0114,0.0095,0.008,0.0091,0.0048,0.0081,0.0116,0.0078,0.0079,0.008,0.003,0.0026,0.0084,0.0084,0.0084,0,0.024,0.0258,0.0247,0.0257,0.0261,0.0237,0.0252,0.024,0.022,0.0222,0.0201,0.0157,0.0128,0.0118,0.012,0.01,0.0067,0.0104,0.0084,0.0084,0.0083,0.0033,0.0027,0.0087,0.0087,0.0087,0.0086,0,0.0269,0.0284,0.0293,0.03,0.0301,0.0312,0.0299,0.0298,0.0284,0.0272,0.0257,0.0211,0.019,0.0172,0.0148,0.0135,0.0107,0.0092,0.0076,0.0088,0.0033,0.0027,0.0091,0.009,0.0089,0.0089,0,0,0.029,0.0311,0.0314,0.0334,0.0329,0.0341,0.0344,0.0349,0.0369,0.0328,0.0337,0.029,0.0268,0.0249,0.0212,0.0176,0.0136,0.0138,0.0135,0.0095,0.0041,0.0032,0.0024,0.0117,0.0116,0.0116,0.0,0,0.0316,0.0354,0.0353,0.0393,0.0415,0.0403,0.0417,0.0417,0.0408,0.0409,0.0355,0.0349,0.0297,0.029,0.0245,0.0169,0.0122,0.0168,0.003,0.0026,0.0022,0.0018,0.0114,-0.0005,-0.0007,-0.0008,-0.0009,0,0.0341,0.0369,0.0413,0.0459,0.0469,0.0489,0.0521,0.0534,0.0524,0.0516,0.0489,0.0444,0.039,0.0341,0.021,0.0241,0.0149,0.0078,0.0071,0.0043,0.0006,-0.0019,-0.0021,-0.002,-0.002,-0.0019,-0.0018,0,0.0369,0.0414,0.0458,0.047,0.051,0.0536,0.0561,0.0572,0.0605,0.059,0.0601,0.052,0.0488,0.0363,0.0214,0.0212,0.0057,0.0035,-0.0065,-0.0068,-0.005,-0.005,-0.0062,-0.0062,-0.0062,-0.0061,-0.0061,0,0.0398,0.0437,0.0483,0.051,0.0587,0.0592,0.0669,0.0681,0.0702,0.0751,0.0669,0.0666,0.0493,0.0381,0.0233,0.0065,0.0069,-0.006,-0.0094,-0.0027,-0.0022,-0.0056,-0.0054,-0.0066,-0.0065,-0.0064,-0.0063,0,0.042,0.0444,0.0511,0.0572,0.0604,0.0664,0.0757,0.0809,0.0819,0.0872,0.0869,0.0775,0.0633,0.0443,0.0234,0.0106,-0.0063,-0.0128,-0.0048,-0.0076,-0.0173,-0.0167,-0.0249,-0.025,-0.0251,-0.0252,-0.0253,0,0.0434,0.0466,0.0565,0.0627,0.0664,0.0757,0.0823,0.0868,0.0923,0.094,0.0961,0.0842,0.0754,0.0455,0.0244,-0.0047,-0.0088,-0.019,-0.0178,-0.0165,-0.0191,-0.0183,-0.0175,-0.0254,-0.0254,-0.0255,-0.0255,0,0.0466,0.0501,0.0564,0.0685,0.0773,0.088,0.0975,0.102,0.1067,0.1074,0.1043,0.0885,0.0719,0.047,0.0241,0.0033,-0.0129,-0.0201,-0.02,-0.0191,-0.0173,-0.0195,-0.0187,-0.0258,-0.0258,-0.0258,-0.0257,0,0.0497,0.0549,0.0633,0.0745,0.0861,0.0966,0.1016,0.1074,0.1124,0.1129,0.1113,0.0931,0.0824,0.051,0.0301,0.0093,0.0037,-0.004,-0.0049,-0.0048,0.0043,0.0097,0.0067,0,0,0,0,0,0.0523,0.0585,0.0688,0.0811,0.0924,0.0994,0.1101,0.1134,0.1171,0.1164,0.1145,0.0991,0.0688,0.0552,0.0345,0.0264,-0.0013,0.001,-0.011,-0.0277,-0.0273,-0.0202,0,0,0,0,0,0,0.0544,0.0636,0.0687,0.0841,0.093,0.1058,0.1128,0.1155,0.115,0.1153,0.0998,0.0928,0.0633,0.0812,0.0339,0.0275,0.0166,-0.0128,-0.0133,-0.0279,-0.0276,-0.0273,-0.0198,0,0,0,0,0]}]]